Skip Page Navigation
NASA JPL Caltech
NASA Logo - Jet Propulsion Laboratory + View the NASA Portal
+ Center for Near-Earth Object Studies
JPL Home Earth Solar System Stars & Galaxies Technology
JPL Solar System Dynamics
BODIES ORBITS EPHEMERIDES TOOLS PHYSICAL DATA DISCOVERY FAQ SITE MAP
IMPORTANT: The SSD Announcement email list is now available. Major changes are coming in the near future, including possible hostname and/or URL changes. To be notified of such changes, subscribe to this email list.

Please visit this page for more details.


JPL Small-Body Database Browser
Search: [ help ]  
452069 (2014 OD334)
Classification: Main-belt Asteroid          SPK-ID: 2452069
Ephemeris | Orbit Diagram | Orbital Elements | Mission Design | Physical Parameters | Discovery Circumstances | Close-Approach Data ]

[ show orbit diagram ]
Orbital Elements at Epoch 2458600.5 (2019-Apr-27.0) TDB
Reference: JPL 16 (heliocentric ecliptic J2000)
 Element Value Uncertainty (1-sigma)   Units 
e .1348328243260388 1.0528e-07  
a 3.057344554008408 1.7029e-07 au
q 2.645114152853621 2.3769e-07 au
i 10.55851883981819 7.0597e-06 deg
node 238.7196664468774 4.3874e-05 deg
peri 87.04131072480823 5.1747e-05 deg
M 309.8760103432468 4.1956e-05 deg
tp 2458872.368027122884
(2020-Jan-23.86802712)
0.00024609 TDB
period 1952.607732035392
5.35
0.00016314
4.467e-07
d
yr
n .1843688284613813 1.5404e-08 deg/d
Q 3.469574955163195 1.9326e-07 au
  Orbit Determination Parameters
   # obs. used (total)      111  
   data-arc span      3204 days (8.77 yr)  
   first obs. used      2008-05-08  
   last obs. used      2017-02-14  
   planetary ephem.      DE431  
   SB-pert. ephem.      SB431-N16  
   condition code      0  
   norm. resid. RMS      .49448  
   source      ORB  
   producer      Otto Matic  
   solution date      2017-Apr-09 10:53:36  

Additional Information
 Earth MOID = 1.65966 au 
 Jupiter MOID = 1.9218 au 
 T_jup = 3.195 
[ show covariance matrix ]

Ephemeris | Orbit Diagram | Orbital Elements | Mission Design | Physical Parameters | Discovery Circumstances | Close-Approach Data ]

Physical Parameter Table
Parameter Symbol Value Units Sigma Reference Notes
absolute magnitude H 16.2   n/a MPO361088  

452069 (2014 OD334)          Discovered 2008-May-08 by Mt. Lemmon Survey at Mount Lemmon
Reference: Last Updated: 2015-11-30

[ show close-approach data ]
Ephemeris | Orbit Diagram | Orbital Elements | Mission Design | Physical Parameters | Discovery Circumstances | Close-Approach Data ]
ABOUT SSD CREDITS/AWARDS PRIVACY/COPYRIGHT GLOSSARY LINKS
FirstGov 2019-Dec-09 16:11 UT
(server date/time)  
NASA Home Page
Site Manager:   Ryan S. Park
Webmaster  Alan B. Chamberlin